Temperature
14 13 13 13 13 13 12 12 12 12 12 12 11 11 11 11 11 11 11 11 11 11 11 11 11 11 11 11 11 11 11 11 11 11 11 11 11 11 11 11 11 11 11
13 13 13 13 12 12 12 12 12 12 12 11 11 11 11 11 11 11 11 11 11 11 11 11 11 11 11 11 11 11 11 11 11 10 11 11 11 11 11 11 11 10 10
13 13 13 12 12 12 12 12 11 11 11 11 11 11 11 11 11 11 11 11 11 11 10 10 10 10 10 10 10 10 10 10 10 10 10 10 10 11 11 11 10 10 10
13 13 13 12 12 12 12 11 11 11 11 11 11 11 11 11 11 11 11 11 11 10 10 10 10 10 10 10 10 10 10 10 10 10 10 10 10 10 10 10 10 10 10
13 13 13 12 12 12 12 11 11 11 11 11 11 11 11 11 11 11 11 10 10 10 10 10 10 10 10 10 10 10 10 10 10 10 10 10 10 10 10 10 10 10 10
13 13 13 12 12 12 12 12 11 11 11 11 11 11 10 10 11 11 10 10 10 10 10 10 10 10 10 10 10 10 10 10 10 10 10 10 10 10 10 10 10 9 9
13 13 13 12 12 12 12 12 11 11 11 11 11 10 10 10 10 10 10 10 10 10 10 10 10 10 10 10 10 10 10 10 10 9 9 9 9 10 10 10 10 9 9
13 13 13 12 12 12 12 11 11 11 11 11 11 10 11 11 10 10 10 10 10 10 10 10 10 10 10 10 10 10 10 10 9 9 9 9 9 9 9 9 9 9 10
13 12 12 12 12 12 12 11 11 11 11 11 11 11 11 11 10 10 10 10 10 10 10 10 10 10 10 10 9 10 10 10 9 9 9 9 9 9 9 9 9 9 9
12 12 12 12 12 12 12 11 11 11 11 11 11 11 11 11 11 10 10 10 10 10 10 10 10 10 10 10 10 9 9 10 9 9 10 10 10 10 10 10 9 9 9
12 12 12 12 12 12 12 11 11 11 11 11 11 11 11 11 11 11 10 10 10 10 10 10 10 10 10 10 10 10 9 9 9 9 9 10 10 10 10 10 10 9 9
12 12 12 12 12 12 12 12 12 11 11 11 11 11 11 11 11 11 10 10 10 10 10 10 10 10 10 10 10 10 9 9 9 9 9 9 9 10 10 10 10 10 9
12 12 12 12 12 12 12 12 12 11 11 11 12 11 11 11 11 11 10 10 10 10 10 10 10 10 10 10 10 10 9 9 9 9 9 9 9 9 9 10 10 10 10
12 12 12 12 12 12 12 12 12 12 12 12 11 11 11 11 11 10 10 10 10 10 10 10 10 10 10 10 10 10 10 9 9 9 9 9 9 9 9 9 9 10 9
12 12 12 12 12 12 12 12 12 12 12 12 11 11 11 11 11 10 10 10 10 10 10 10 10 10 10 10 10 10 10 9 9 9 9 9 9 9 9 9 9 9 9
12 12 12 12 12 12 12 12 12 12 12 12 12 11 11 11 11 11 10 10 10 10 10 10 10 10 10 10 10 10 10 9 9 9 9 9 9 9 9 9 9 9 9
12 12 12 13 13 13 13 13 13 12 12 12 12 12 11 11 11 11 11 11 10 10 10 10 10 10 10 10 9 9 9 9 9 9 9 9 9 9 9 9 9 9 9
12 13 13 13 13 13 13 13 13 13 13 13 12 12 12 12 11 11 11 11 10 10 10 10 10 10 9 9 9 9 9 9 9 9 9 8 8 8 8 8 9 9 9
13 13 13 13 13 13 13 13 13 13 13 13 12 12 12 12 11 11 11 11 10 10 10 10 9 9 9 9 9 8 8 8 8 8 8 8 8 8 8 8 8 8 8
13 13 13 13 13 13 13 13 13 13 13 13 12 12 12 12 11 11 11 10 10 10 10 9 9 9 9 8 8 8 8 8 8 8 7 7 7 8 8 8 8 8 8
13 13 13 13 13 13 13 13 13 13 13 13 13 12 12 11 11 11 10 10 10 9 9 9 9 8 8 8 8 8 8 7 7 7 7 7 7 7 7 7 8 8 8
13 13 13 13 13 13 13 13 13 13 13 13 12 12 12 11 11 11 10 10 9 9 9 9 8 8 8 8 7 7 7 7 7 7 7 7 7 7 7 7 7 7 7
13 14 14 14 14 14 13 13 13 13 13 12 12 12 11 11 11 10 10 9 9 9 8 8 8 8 7 7 7 7 6 6 6 6 6 6 6 6 6 7 7 7 7
14 14 14 14 14 14 13 13 13 13 12 12 12 12 11 11 10 10 9 9 9 8 8 8 7 7 7 7 7 6 6 6 6 6 6 6 6 6 6 6 6 6 6
14 14 14 14 14 13 13 13 13 12 12 12 12 11 11 10 10 10 9 9 8 8 8 7 7 7 7 7 6 6 6 6 6 6 6 6 6 5 5 6 6 6 6
14 14 14 14 13 13 13 13 13 12 12 12 11 11 10 10 10 9 9 8 8 8 7 7 7 7 7 6 6 6 6 6 6 5 5 5 5 5 5 5 5 5 5
Wind_Speed
1 1 0 1 0 1 1 1 2 2 3 3 3 3 3 3 4 4 4 4 5 5 5 4 5 5 4 4 4 4 4 3 4 4 4 3 4 4 3 4 5 5 6
1 1 1 1 0 1 1 2 2 2 2 3 3 3 4 4 4 4 5 5 4 5 5 5 5 5 4 4 4 4 4 4 3 5 5 4 4 4 4 4 5 5 4
1 1 1 1 1 1 1 2 2 2 2 2 3 3 4 4 4 4 5 5 5 5 5 5 5 5 4 4 4 4 4 4 3 3 5 4 4 4 4 4 5 3 5
1 1 1 1 1 1 1 2 2 2 2 3 3 3 3 3 4 5 5 5 4 5 5 4 4 4 4 4 4 4 4 4 4 4 4 4 4 4 3 3 3 3 3
0 0 1 1 1 1 1 2 2 2 3 2 2 3 3 3 4 5 5 5 5 5 4 4 3 3 4 4 4 4 5 4 4 4 4 3 3 3 3 3 3 3 3
1 1 1 1 1 1 1 1 2 2 3 3 3 3 4 4 5 6 5 5 5 5 4 4 3 3 4 4 5 6 5 5 4 4 4 4 5 4 3 4 3 3 3
2 2 2 1 1 0 1 1 2 3 2 2 3 3 3 3 4 5 6 5 4 4 4 4 5 5 4 3 4 5 6 7 7 5 6 6 5 5 5 5 4 4 4
3 2 1 0 0 0 1 2 2 2 2 2 2 3 2 4 5 5 7 5 5 4 5 4 3 3 4 5 5 5 5 4 5 5 5 6 6 5 5 5 5 5 5
3 1 1 0 0 1 1 2 2 2 2 3 2 2 2 3 4 5 5 4 4 4 4 4 3 2 4 6 5 5 6 6 6 6 8 8 9 10 7 4 5 4 5
3 2 1 0 1 1 1 2 2 2 2 3 3 3 2 2 3 4 4 4 5 5 4 3 2 3 5 5 4 5 6 7 7 8 7 8 8 9 10 7 6 5 5
3 2 1 0 1 1 1 1 3 3 3 3 3 3 2 2 2 3 3 3 5 6 5 4 3 4 6 6 6 5 8 8 8 7 7 6 5 5 5 6 5 5 5
2 1 0 0 1 1 0 2 3 3 3 3 3 3 2 1 2 3 5 6 7 6 6 5 5 8 9 9 7 9 11 9 7 6 6 5 5 4 4 4 5 5 6
2 1 1 1 0 1 2 2 2 2 2 2 2 3 3 2 2 3 5 8 9 6 6 9 11 12 11 9 9 10 8 5 5 5 5 5 5 4 4 4 4 5 6
1 1 1 1 1 1 2 2 2 2 2 3 3 4 4 3 3 4 5 6 6 5 6 9 11 11 9 8 8 6 5 5 5 5 5 5 5 4 4 4 4 4 4
1 2 3 3 2 1 2 2 2 2 1 2 3 4 4 4 5 6 5 6 6 6 7 6 6 5 5 5 5 5 4 3 3 4 4 5 5 5 5 4 4 3 4
2 3 3 3 2 2 2 1 1 3 3 4 4 4 3 4 8 10 10 11 10 8 5 5 6 6 5 5 5 5 4 4 3 3 3 4 4 5 5 5 4 4 4
2 2 3 3 2 2 2 2 1 2 5 7 7 7 8 10 11 11 12 12 12 6 3 5 6 6 5 5 4 4 5 4 3 4 4 4 4 4 4 4 4 4 4
3 3 3 3 2 2 2 2 2 2 2 2 5 9 10 11 11 11 10 8 7 3 3 5 6 6 5 6 6 5 5 5 5 5 5 4 4 4 4 4 4 4 5
4 3 2 3 3 2 3 3 2 2 2 2 1 2 5 7 9 9 5 3 6 6 5 5 5 5 5 5 5 5 6 5 6 6 6 5 5 5 5 5 5 7 5
3 3 3 3 3 3 3 3 3 3 3 3 2 3 2 3 3 4 2 3 4 5 5 6 5 5 5 6 5 5 6 5 6 6 6 7 6 6 6 7 6 6 5
3 2 4 3 3 3 3 3 4 3 3 3 2 2 3 4 4 5 5 4 5 6 6 6 5 5 6 6 6 6 7 6 6 6 7 7 7 6 6 6 6 6 6
2 1 2 3 2 3 4 4 3 3 4 5 4 2 3 3 4 5 5 5 5 5 6 6 6 6 6 6 6 6 7 7 7 7 8 8 7 7 7 7 7 6 6
3 2 2 2 2 2 3 3 3 4 4 4 5 5 4 4 5 5 6 5 5 5 5 5 6 7 7 6 6 6 7 7 8 9 9 8 8 8 7 7 8 8 7
3 3 2 2 2 2 2 2 3 4 4 4 4 5 5 4 5 6 6 6 5 5 6 5 6 8 10 7 6 6 7 7 9 8 10 10 9 8 8 8 7 8 8
3 3 2 2 2 2 2 2 3 3 3 4 4 5 5 5 5 5 5 6 6 6 7 6 5 7 9 9 9 8 9 9 9 9 9 9 9 9 8 8 8 8 8
3 2 2 1 2 2 2 2 2 3 3 4 4 4 5 5 5 5 5 5 6 6 6 6 8 9 9 8 9 10 9 10 12 12 9 8 9 8 8 7 9 8 8
Wind_Direction
230 198 215 233 235 315 309 314 321 322 316 312 315 309 303 303 304 298 290 290 294 299 302 303 297 293 298 301 301 287 273 270 277 292 298 299 297 289 275 254 254 248 240
187 182 191 237 283 298 312 314 313 306 307 310 309 306 303 310 313 307 303 305 305 303 303 303 301 301 298 295 295 294 287 275 265 284 293 291 287 277 266 261 265 256 243
177 174 177 233 276 294 300 304 304 304 309 309 306 306 311 320 319 316 314 311 309 307 306 304 302 304 304 298 295 295 293 295 281 277 286 287 286 283 280 276 274 267 261
218 154 202 238 267 290 296 306 298 307 310 309 310 314 318 323 327 329 326 323 318 314 310 307 310 314 311 308 302 298 296 296 288 277 277 283 282 278 279 279 288 268 270
285 233 236 243 257 279 298 315 317 317 317 322 321 322 321 321 338 337 324 325 330 319 316 320 322 321 309 301 301 309 316 307 296 295 292 296 298 294 292 285 285 287 278
256 246 228 223 234 260 283 332 334 330 335 344 337 333 340 347 0 355 344 327 321 318 320 320 307 301 302 289 278 270 270 286 300 301 297 297 293 293 292 290 287 287 284
278 256 231 225 265 277 321 356 352 345 345 342 333 344 348 346 341 340 338 318 313 315 317 317 319 327 334 323 300 284 272 261 252 258 277 281 283 290 294 295 291 285 279
290 264 258 112 270 323 2 1 357 339 329 327 328 328 324 332 332 326 322 309 306 307 304 303 307 325 337 332 318 315 308 294 268 255 263 271 271 273 272 272 270 272 271
297 300 1 330 103 10 14 360 349 334 334 328 316 309 315 320 322 319 318 306 301 307 310 319 317 333 329 323 315 313 311 304 293 283 269 265 264 264 265 274 274 272 279
311 308 317 33 49 29 17 346 325 313 307 306 316 310 312 322 318 310 312 306 309 310 306 304 316 323 321 318 304 307 305 305 312 310 296 276 264 257 247 237 252 264 267
307 305 10 24 234 166 17 313 302 303 308 304 309 305 298 291 290 288 290 295 309 313 314 316 316 317 310 302 295 282 280 290 297 292 291 286 272 262 251 238 233 242 260
313 328 28 308 299 351 273 279 287 294 304 302 305 305 293 278 292 291 288 287 295 304 308 314 313 310 308 302 294 280 284 292 284 282 287 289 289 284 275 260 248 241 241
315 351 331 306 273 295 285 286 292 290 304 325 330 329 329 346 11 335 304 296 295 290 298 305 302 296 296 292 279 280 284 279 278 285 290 291 290 292 295 290 277 263 256
314 303 270 253 256 268 278 291 302 322 342 340 341 339 343 353 6 352 330 316 304 302 308 305 299 288 284 283 289 284 263 265 275 286 297 296 299 301 296 290 283 277 272
289 266 264 262 248 260 251 273 290 322 309 301 320 329 339 341 342 341 327 327 330 333 324 305 300 300 301 295 288 282 274 268 276 286 291 297 298 297 297 296 291 292 283
262 264 267 260 244 249 250 284 248 230 243 246 255 277 304 295 306 315 318 317 317 324 322 305 307 309 307 310 315 316 316 314 299 282 283 286 292 304 310 309 303 297 298
258 268 276 279 273 254 271 271 269 252 252 253 258 261 260 278 294 301 308 316 311 316 314 310 315 314 316 324 328 329 328 329 325 318 312 312 315 312 306 302 304 307 306
261 260 263 278 289 291 287 280 281 292 292 268 248 244 254 267 278 292 310 327 317 316 311 315 321 329 338 342 343 339 337 339 338 329 324 326 319 312 310 311 305 297 298
273 276 278 300 303 303 297 300 319 321 319 326 322 269 260 275 280 291 308 313 317 330 338 340 343 347 351 350 346 343 345 346 345 340 338 332 327 324 324 326 324 319 309
246 246 259 276 290 295 302 321 324 319 332 348 356 4 349 325 326 327 323 317 328 337 342 346 348 350 351 349 347 349 342 343 350 353 345 339 337 335 331 326 323 324 320
257 217 216 253 283 310 319 316 315 330 349 350 3 35 354 337 340 339 350 355 353 351 352 348 344 353 356 353 351 351 353 357 1 354 344 335 331 329 326 324 321 321 323
280 266 238 263 281 302 314 315 335 346 355 359 351 339 322 331 344 350 356 2 5 1 359 356 358 5 7 5 2 1 2 1 355 345 334 329 330 327 324 322 324 327 328
269 272 261 268 290 302 297 325 351 354 2 6 345 338 346 354 353 360 2 3 4 4 359 0 3 8 13 16 17 18 11 0 344 336 332 328 327 323 321 322 324 329 331
274 285 290 293 313 324 334 348 348 353 356 359 345 339 352 4 4 6 3 1 2 3 1 6 14 20 20 16 16 21 20 2 344 337 333 323 320 322 325 325 324 331 331
273 279 288 303 324 329 333 344 348 353 351 352 353 355 1 5 10 13 5 2 356 2 5 7 13 21 22 23 19 16 7 356 348 338 324 316 317 320 325 327 328 330 332
285 283 289 315 319 320 329 345 352 357 1 1 359 360 1 360 3 6 1 359 358 2 4 7 19 30 27 26 20 14 3 350 342 335 323 311 316 327 333 328 330 331 331
Height
1487 1487 1486 1486 1486 1485 1485 1485 1484 1483 1482 1481 1480 1479 1478 1477 1476 1476 1474 1473 1472 1471 1469 1468 1467 1467 1466 1465 1464 1464 1463 1463 1461 1460 1459 1458 1458 1456 1454 1453 1452 1451 1450
1485 1485 1485 1485 1485 1484 1484 1483 1483 1481 1480 1480 1479 1478 1477 1476 1474 1473 1472 1471 1469 1468 1467 1466 1464 1464 1463 1462 1461 1460 1460 1459 1458 1456 1455 1455 1454 1452 1451 1450 1449 1448 1447
1485 1485 1484 1484 1484 1483 1483 1482 1481 1480 1479 1478 1477 1476 1475 1473 1472 1471 1470 1468 1467 1465 1464 1463 1462 1461 1460 1459 1458 1457 1456 1456 1455 1454 1452 1451 1450 1449 1448 1447 1446 1445 1444
1484 1484 1484 1483 1483 1482 1482 1481 1480 1479 1477 1476 1475 1474 1473 1471 1470 1469 1468 1466 1465 1463 1462 1460 1459 1458 1457 1456 1455 1454 1453 1452 1452 1450 1449 1448 1447 1446 1445 1443 1442 1441 1440
1483 1483 1483 1483 1482 1481 1481 1480 1479 1477 1476 1475 1474 1473 1472 1470 1469 1467 1466 1464 1462 1461 1459 1458 1457 1456 1454 1453 1453 1451 1451 1450 1449 1448 1447 1445 1444 1443 1442 1441 1439 1438 1437
1483 1482 1482 1482 1481 1481 1480 1479 1478 1477 1475 1474 1473 1472 1471 1469 1468 1466 1464 1462 1461 1459 1457 1456 1454 1453 1452 1451 1450 1449 1448 1447 1446 1445 1444 1443 1441 1440 1440 1438 1437 1436 1434
1482 1482 1481 1481 1481 1480 1480 1479 1478 1476 1475 1473 1472 1471 1470 1469 1467 1465 1464 1462 1460 1458 1456 1454 1453 1452 1450 1449 1447 1446 1446 1445 1444 1443 1441 1440 1438 1437 1437 1435 1434 1433 1432
1481 1481 1481 1480 1480 1480 1479 1478 1477 1476 1475 1474 1473 1471 1470 1468 1467 1465 1463 1461 1459 1457 1455 1453 1451 1449 1448 1447 1445 1444 1443 1442 1441 1440 1438 1437 1435 1434 1433 1432 1431 1430 1429
1481 1480 1480 1480 1479 1479 1478 1478 1477 1476 1475 1473 1472 1471 1469 1467 1466 1464 1462 1460 1458 1456 1454 1452 1450 1448 1447 1445 1443 1441 1440 1439 1438 1437 1435 1433 1432 1431 1430 1429 1428 1427 1425
1480 1480 1480 1480 1479 1479 1478 1478 1477 1476 1475 1473 1472 1471 1469 1467 1465 1463 1461 1459 1457 1454 1452 1451 1449 1447 1445 1443 1441 1439 1437 1436 1434 1433 1432 1430 1429 1427 1427 1426 1424 1424 1422
1480 1480 1480 1479 1479 1478 1478 1477 1477 1476 1475 1473 1472 1470 1468 1466 1464 1462 1460 1458 1455 1453 1451 1449 1447 1446 1444 1442 1440 1438 1435 1434 1432 1430 1428 1427 1425 1424 1423 1422 1421 1420 1419
1480 1480 1479 1479 1479 1478 1478 1477 1476 1475 1474 1473 1471 1469 1468 1466 1464 1461 1459 1457 1454 1452 1450 1448 1446 1444 1442 1440 1438 1435 1434 1431 1429 1427 1426 1424 1423 1421 1420 1419 1418 1417 1416
1480 1479 1479 1479 1479 1478 1478 1477 1476 1475 1474 1473 1471 1469 1468 1466 1463 1461 1458 1455 1453 1450 1448 1446 1444 1442 1440 1437 1435 1433 1431 1429 1427 1425 1423 1422 1420 1419 1417 1416 1414 1413 1412
1480 1479 1479 1479 1478 1478 1478 1477 1476 1475 1474 1472 1471 1469 1467 1465 1463 1460 1457 1454 1451 1449 1446 1444 1442 1439 1437 1435 1433 1431 1428 1427 1425 1423 1420 1419 1417 1415 1414 1412 1410 1409 1408
1480 1479 1479 1479 1479 1478 1477 1477 1476 1475 1473 1472 1470 1468 1466 1464 1462 1459 1456 1453 1450 1447 1445 1442 1440 1438 1435 1433 1431 1429 1427 1424 1422 1420 1418 1416 1414 1413 1411 1409 1407 1406 1404
1479 1479 1479 1479 1478 1478 1477 1476 1475 1473 1472 1470 1469 1467 1465 1464 1461 1458 1456 1453 1449 1446 1443 1441 1438 1436 1434 1432 1429 1427 1425 1422 1420 1418 1416 1414 1412 1410 1408 1406 1405 1403 1402
1479 1479 1479 1479 1478 1477 1476 1475 1474 1473 1471 1470 1468 1466 1465 1462 1460 1457 1454 1451 1449 1446 1442 1440 1437 1435 1433 1431 1428 1426 1423 1421 1419 1416 1414 1412 1410 1408 1406 1404 1403 1401 1399
1479 1478 1478 1478 1478 1477 1476 1475 1474 1472 1471 1469 1467 1465 1463 1461 1459 1456 1453 1450 1448 1445 1442 1440 1437 1434 1432 1429 1427 1424 1422 1420 1417 1415 1413 1410 1408 1406 1404 1403 1401 1399 1397
1478 1478 1478 1477 1477 1476 1475 1475 1473 1472 1470 1469 1467 1465 1463 1460 1458 1455 1453 1450 1447 1445 1442 1439 1437 1433 1431 1428 1425 1423 1421 1418 1416 1413 1411 1409 1407 1404 1402 1401 1399 1396 1394
1477 1477 1477 1477 1476 1476 1475 1474 1473 1471 1470 1468 1466 1464 1462 1460 1457 1455 1452 1450 1447 1445 1442 1439 1436 1433 1430 1427 1425 1422 1420 1417 1414 1412 1409 1407 1405 1403 1401 1399 1397 1394 1392
1477 1477 1476 1476 1476 1475 1475 1474 1472 1471 1469 1468 1466 1464 1461 1459 1457 1455 1452 1450 1447 1444 1441 1439 1436 1433 1430 1427 1424 1421 1419 1416 1413 1411 1408 1405 1403 1401 1399 1397 1395 1392 1390
1477 1476 1476 1476 1475 1475 1474 1473 1472 1471 1469 1467 1465 1463 1461 1459 1457 1454 1452 1450 1447 1444 1441 1439 1436 1432 1429 1426 1423 1420 1418 1415 1412 1409 1406 1404 1402 1399 1397 1395 1393 1390 1387
1476 1476 1476 1475 1475 1474 1473 1472 1471 1470 1468 1467 1465 1463 1461 1459 1457 1454 1452 1449 1447 1444 1441 1438 1435 1432 1429 1426 1423 1420 1417 1414 1411 1408 1405 1402 1400 1397 1395 1393 1391 1388 1385
1475 1475 1475 1475 1474 1473 1473 1472 1471 1469 1468 1466 1465 1463 1461 1459 1456 1454 1451 1449 1446 1443 1441 1438 1435 1431 1428 1425 1422 1419 1416 1413 1410 1406 1403 1400 1398 1395 1393 1391 1389 1386 1383
1475 1474 1474 1474 1474 1473 1472 1471 1470 1469 1467 1466 1464 1462 1460 1458 1456 1453 1451 1448 1446 1443 1440 1437 1434 1430 1427 1424 1420 1417 1414 1411 1408 1404 1401 1399 1396 1394 1391 1389 1386 1384 1382
1473 1474 1473 1473 1473 1472 1471 1470 1469 1468 1467 1465 1463 1462 1460 1457 1455 1452 1450 1447 1445 1442 1439 1436 1433 1429 1425 1422 1419 1415 1412 1409 1405 1402 1399 1397 1394 1392 1389 1387 1384 1382 1380